This is the latest recevied weather packets stored in our database for station/object OK1FPA-13. If no packets are shown the sender has not sent any weather packets the latest 10 day(s).
| Time | Temp. | Humidity | Pressure | Rain* | Wind** | Luminosity | Snow |
|---|---|---|---|---|---|---|---|
| 1777754071 | 12.78° C | 51% | 1017.9 hPa | - | - | - | - |
| 1777753471 | 12.78° C | 51% | 1018 hPa | - | - | - | - |
| 1777752871 | 12.78° C | 52% | 1017.9 hPa | - | - | - | - |
| 1777752271 | 12.78° C | 51% | 1017.9 hPa | - | - | - | - |
| 1777751671 | 13.89° C | 48% | 1017.8 hPa | - | - | - | - |
| 1777751071 | 14.44° C | 46% | 1017.8 hPa | - | - | - | - |
| 1777750471 | 16.11° C | 44% | 1017.8 hPa | - | - | - | - |
| 1777749871 | 16.67° C | 43% | 1017.8 hPa | - | - | - | - |
| 1777749271 | 17.22° C | 42% | 1017.7 hPa | - | - | - | - |
| 1777748671 | 17.22° C | 41% | 1017.7 hPa | - | - | - | - |
| 1777748071 | 17.78° C | 39% | 1017.7 hPa | - | - | - | - |
| 1777747471 | 18.89° C | 37% | 1017.6 hPa | - | - | - | - |
| 1777746871 | 19.44° C | 37% | 1017.5 hPa | - | - | - | - |
| 1777746271 | 20° C | 38% | 1017.5 hPa | - | - | - | - |
| 1777745671 | 20° C | 37% | 1017.5 hPa | - | - | - | - |
| 1777745072 | 20.56° C | 35% | 1017.5 hPa | - | - | - | - |
| 1777744471 | 21.67° C | 33% | 1017.4 hPa | - | - | - | - |
| 1777743871 | 21.67° C | 33% | 1017.5 hPa | - | - | - | - |
| 1777743271 | 22.22° C | 32% | 1017.5 hPa | - | - | - | - |
| 1777742671 | 22.22° C | 32% | 1017.5 hPa | - | - | - | - |
| 1777740871 | 22.78° C | 30% | 1017.7 hPa | - | - | - | - |
| 1777740271 | 22.78° C | 29% | 1017.8 hPa | - | - | - | - |
| 1777739671 | 23.33° C | 27% | 1017.9 hPa | - | - | - | - |
| 1777739071 | 23.33° C | 27% | 1018 hPa | - | - | - | - |
| 1777738471 | 23.89° C | 26% | 1018.1 hPa | - | - | - | - |
* Rain since midnight (hover to see other rain measurements)
** Current wind speed in m/s (hover to see current wind gust speed)